sat.trackr.live / text

‹ back to catalog

KUIPER-00454

NORAD 68948 · 2026-098AF

PAYLOAD ACTIVE UNKNOWN

§ Identity

Operator
Country
US
Launch date
2026-04-30
Launch site
FRGUI
Launch vehicle
Mass (kg)
RCS (m²)

External: N2YO · Heavens-Above · Gunter

§ Orbital elements

Epoch: 2026-09-19T15:16:37.528608Z

Period
97.30 min
Inclination
51.9015°
Eccentricity
0.0000933
Mean motion
14.79910933 rev/d
Perigee alt
629.0 km
Apogee alt
630.3 km
Semi-major
7,007.7 km
B*
1.5545e-4
RAAN
7.9907°
Arg perigee
102.9495°
Mean anomaly
257.1572°
Rev number
2,136

§ Raw data

KUIPER-004541 68948U 26098AF  26262.63654547  .00000963  00000+0  15545-3 0  99982 68948  51.9015   7.9907 0000933 102.9495 257.1572 14.79910933 21362

JSON: /api/v1/satellites/68948 · /tle

For live sub-satellite position, see the globe view (requires WebGL).

§ Visibility from observer

Set your observer location to see the next 7 days of passes ≥ 10°. The values pass through the URL so the page stays shareable.

No JS? Fill the form by hand. The geolocation button needs JavaScript.